Wind_Speed
23 23 24 24 24 24 24 24 24 24 25 25 25 25 26 26 26 26 26 26 26 26 26 26 27 26 26 27 28 28 28 28 29 30 29 29 29 29 29 28 28 28 28
24 24 23 23 23 24 24 24 25 25 26 26 26 26 26 26 27 26 27 27 27 27 27 27 27 28 28 29 29 30 30 30 30 31 30 30 30 31 31 30 30 30 30
25 24 23 24 23 24 24 25 25 26 26 25 26 26 27 27 27 26 26 27 28 28 28 28 28 29 29 30 30 31 32 32 32 32 32 32 31 31 32 32 32 32 32
25 24 24 24 25 25 25 25 27 26 26 26 27 28 27 27 27 27 27 27 27 28 28 28 28 28 29 30 31 31 32 33 33 33 33 34 34 33 34 34 34 34 34
25 25 25 25 26 26 25 25 26 26 26 27 27 27 28 28 28 28 28 28 28 28 28 28 28 28 29 30 31 32 33 34 34 35 35 35 35 35 35 36 36 36 35
27 25 25 26 26 26 26 27 27 27 27 27 27 27 27 28 27 27 27 27 27 27 28 28 29 29 29 30 32 32 33 34 33 35 35 35 36 36 36 36 37 37 37
28 26 26 26 26 26 26 27 26 27 27 27 26 26 26 26 26 26 27 27 27 27 28 28 29 30 30 31 32 33 33 35 34 35 35 35 36 37 37 37 38 38 38
27 27 27 27 26 27 27 27 26 26 26 26 26 25 25 25 26 26 27 27 26 27 28 29 29 30 31 32 33 33 33 34 35 35 36 36 36 37 37 38 38 39 39
27 27 27 27 26 27 26 26 25 25 25 26 25 25 25 25 26 27 27 27 27 28 29 29 29 30 30 31 31 33 34 34 35 35 34 35 36 36 37 38 38 39 39
26 26 26 26 25 24 24 24 25 25 25 25 25 25 26 26 26 26 27 28 28 29 29 29 29 30 30 31 31 31 32 33 34 34 34 35 35 35 37 37 37 38 39
24 24 24 24 24 24 24 25 25 24 24 25 25 25 26 26 26 27 27 28 29 29 30 30 30 30 30 30 30 31 31 31 32 33 33 34 36 36 36 37 36 37 38
22 23 23 23 23 23 23 23 24 24 25 25 25 26 26 27 27 27 27 27 29 30 31 31 31 30 31 31 31 30 30 31 32 33 33 34 35 36 36 37 37 37 38
22 22 22 22 21 21 21 21 22 24 24 25 25 26 26 27 28 28 27 28 29 29 30 30 29 29 30 30 30 30 30 30 31 33 33 34 35 35 36 37 38 39 39
20 20 20 20 20 21 21 21 22 22 24 25 26 26 26 27 27 28 29 29 29 28 28 28 28 28 28 29 29 29 30 30 31 32 33 34 35 35 36 37 38 39 39
19 19 19 20 20 21 21 22 23 23 24 25 26 26 26 26 27 27 28 29 28 27 26 26 27 27 27 27 28 29 29 30 31 33 34 34 34 35 36 37 37 38 39
19 19 19 19 20 21 22 22 22 23 24 25 25 26 26 25 26 26 27 27 28 27 26 25 26 26 26 27 27 28 29 30 31 32 34 34 34 35 36 37 38 38 39
18 18 18 19 20 21 22 22 22 22 23 24 24 24 24 25 25 25 25 26 27 26 26 25 25 25 25 26 26 27 28 29 30 31 32 33 34 35 36 37 38 39 39
17 18 18 18 19 20 21 20 20 21 22 23 23 23 24 24 23 24 25 25 25 26 25 24 23 23 24 25 26 27 28 29 30 31 32 33 34 35 35 36 37 38 38
16 17 17 18 18 19 19 19 20 20 21 22 22 22 23 23 23 24 24 24 24 24 24 24 24 24 24 25 26 27 27 27 28 29 31 31 32 33 34 35 36 37 38
16 17 17 17 17 18 19 19 20 21 22 22 22 23 24 24 24 23 23 23 24 24 24 24 24 25 25 25 25 26 26 27 28 30 31 32 33 33 34 35 36 37 38
16 15 15 15 16 17 18 19 20 20 21 23 23 23 24 24 24 24 23 24 24 24 25 24 24 24 25 25 25 26 26 27 28 30 31 32 33 34 35 36 36 36 36
14 14 14 14 15 17 17 19 20 20 21 22 22 23 23 23 24 24 24 25 25 25 25 25 24 24 24 24 24 24 25 25 25 27 29 30 31 31 32 32 34 35 35
14 14 14 14 16 17 17 19 19 20 21 22 23 22 22 23 23 24 25 25 25 25 25 25 25 24 24 23 23 23 23 24 25 25 26 26 28 29 30 32 33 34 34
14 13 13 14 15 16 18 18 19 21 22 22 22 22 22 23 23 24 25 25 25 25 26 26 25 23 23 23 23 23 23 23 24 25 25 25 26 27 29 31 32 34 34
14 13 13 14 15 16 18 18 19 20 21 22 22 22 23 24 24 24 25 25 25 26 25 25 24 23 23 23 23 23 23 24 23 23 24 24 25 26 27 29 31 32 33
13 12 12 13 14 16 17 18 19 20 21 21 22 23 24 24 24 25 25 25 24 24 24 23 23 23 22 22 22 22 23 23 24 24 24 24 24 25 26 27 29 31 32
Wind_Direction
291 289 290 288 287 287 286 287 289 289 289 289 288 287 287 286 286 281 280 278 275 273 273 271 267 265 262 260 258 256 255 255 251 249 248 246 244 242 240 239 239 239 238
292 289 292 291 288 287 286 287 288 288 288 289 288 287 286 286 286 285 282 279 277 274 272 270 268 265 263 261 259 256 255 254 252 250 248 246 245 243 241 240 240 240 239
293 293 290 291 289 289 287 287 287 287 286 287 287 286 285 286 286 285 285 283 278 275 273 271 269 266 264 262 260 258 256 255 252 250 249 246 245 244 243 242 241 240 240
293 291 289 287 288 287 288 287 287 286 286 285 285 285 285 286 284 284 284 284 282 278 274 272 271 268 266 264 261 259 256 254 252 249 248 247 246 246 245 243 242 241 240
292 290 288 287 287 287 288 287 287 286 284 285 284 284 284 285 284 283 284 283 281 279 277 274 271 270 268 266 263 260 257 254 253 250 249 248 247 245 245 245 244 243 241
291 289 288 287 286 285 286 286 286 286 287 286 285 284 285 285 284 284 283 283 281 279 277 275 271 270 269 267 265 261 258 256 253 250 249 248 247 245 244 244 244 243 243
291 289 289 288 286 283 284 286 286 286 287 287 286 285 285 285 284 284 284 284 282 280 278 276 272 271 269 269 267 263 260 257 255 252 250 248 248 247 244 244 243 242 242
292 290 289 287 286 285 285 284 285 285 286 287 286 285 285 286 286 286 285 284 283 281 279 277 274 272 270 268 266 264 262 259 257 255 252 250 248 246 245 244 243 241 241
292 290 289 286 286 286 286 284 283 285 285 286 287 287 286 285 286 287 287 287 285 283 282 279 275 273 271 269 267 263 261 259 257 255 252 250 248 246 246 245 243 242 241
291 290 290 288 287 287 286 284 285 286 286 285 287 288 288 288 287 287 288 288 287 285 284 281 278 274 272 270 267 263 261 259 256 253 251 250 249 248 247 246 244 243 242
291 291 290 289 288 288 285 284 286 288 288 288 287 288 289 290 289 289 289 290 290 289 286 283 280 277 273 270 267 264 261 257 254 252 251 250 249 248 246 244 244 243 242
291 293 292 291 290 290 289 289 289 290 291 289 289 289 289 290 290 290 289 289 289 289 288 285 282 279 275 271 268 264 260 256 254 252 251 250 250 249 246 244 244 244 242
290 292 293 295 293 292 292 294 293 291 292 293 292 292 292 291 290 291 290 290 289 289 289 288 284 280 276 272 269 265 260 256 253 252 251 250 249 248 248 247 245 244 242
291 294 296 297 296 295 296 296 297 295 296 297 297 296 294 292 292 292 292 292 292 291 290 288 284 281 277 273 268 264 260 258 255 253 251 250 249 248 249 247 245 242 242
291 294 294 297 297 299 301 299 297 298 299 299 299 297 296 294 294 295 295 295 295 293 290 287 283 280 277 273 268 265 263 260 258 256 254 253 250 249 249 247 244 242 241
293 294 295 296 299 301 302 301 299 299 301 301 300 299 299 297 296 298 297 296 295 294 291 288 284 280 275 272 270 268 266 263 260 258 257 256 254 251 248 246 245 244 243
296 294 296 298 299 300 302 302 300 299 302 303 303 302 302 300 299 300 299 297 296 295 293 290 287 283 277 274 272 270 268 264 263 261 260 257 254 253 251 250 248 246 244
299 299 298 300 301 303 304 304 304 304 305 306 306 305 305 304 302 303 303 302 300 297 295 292 289 285 281 278 275 274 270 267 264 262 260 258 255 252 252 251 250 248 247
302 301 300 301 303 306 308 308 308 309 309 310 311 313 311 308 306 306 306 306 305 302 298 295 291 286 283 279 277 275 271 269 267 265 262 259 257 255 253 251 251 249 249
302 303 302 304 305 308 310 311 312 312 312 313 315 315 314 312 310 309 309 307 305 304 302 298 295 289 284 281 277 276 273 271 271 268 265 261 259 257 254 252 252 252 250
303 305 308 307 308 311 314 315 316 315 315 316 317 316 314 315 314 311 310 309 309 307 306 303 298 293 288 284 281 279 277 274 272 270 267 263 260 258 255 253 253 252 251
309 306 311 311 311 313 317 319 319 320 320 322 320 319 319 318 316 314 312 310 310 309 308 306 301 297 292 288 285 283 282 278 274 271 269 265 262 259 257 255 253 252 251
315 312 316 315 314 316 320 321 321 325 326 325 324 322 320 319 317 317 316 315 313 312 311 308 304 300 295 290 287 285 283 280 279 278 274 269 265 262 259 256 254 252 252
321 318 321 321 322 324 325 326 327 329 329 328 327 326 325 322 320 320 319 317 316 314 313 311 308 303 299 294 289 288 285 283 281 280 278 274 268 265 262 259 257 254 253
327 321 323 327 329 332 332 332 332 331 332 333 333 331 329 327 326 324 323 322 319 317 315 313 311 306 302 296 292 289 287 285 282 282 280 276 272 268 264 260 257 256 254
334 329 332 334 338 339 338 337 338 337 337 336 335 334 332 331 329 328 327 325 322 320 317 315 313 309 303 298 295 292 290 289 285 284 282 278 274 270 266 262 261 259 256
Height
5827 5826 5824 5823 5822 5820 5820 5818 5817 5816 5815 5814 5812 5811 5810 5808 5807 5806 5805 5805 5804 5804 5804 5803 5804 5804 5804 5805 5805 5806 5808 5809 5811 5812 5814 5816 5818 5820 5822 5825 5827 5830 5833
5821 5820 5818 5817 5816 5815 5814 5813 5812 5811 5809 5808 5806 5805 5804 5802 5801 5800 5799 5798 5798 5797 5797 5797 5797 5797 5797 5798 5799 5799 5801 5802 5803 5805 5807 5808 5811 5813 5816 5818 5821 5824 5826
5816 5814 5812 5812 5811 5810 5809 5807 5806 5805 5803 5802 5800 5799 5798 5796 5795 5793 5792 5791 5791 5790 5790 5789 5789 5790 5790 5790 5791 5792 5793 5794 5796 5797 5799 5801 5803 5806 5809 5811 5814 5817 5820
5811 5810 5808 5807 5806 5804 5803 5801 5800 5799 5797 5796 5794 5793 5791 5790 5788 5787 5786 5785 5784 5783 5783 5782 5782 5782 5782 5782 5783 5783 5785 5786 5788 5789 5791 5793 5796 5799 5801 5804 5807 5809 5812
5806 5804 5802 5801 5800 5798 5797 5795 5794 5792 5791 5789 5787 5786 5785 5784 5782 5781 5779 5778 5777 5776 5775 5775 5774 5774 5774 5774 5774 5775 5776 5777 5778 5780 5782 5784 5787 5790 5793 5796 5799 5802 5804
5800 5798 5797 5795 5794 5792 5791 5789 5787 5786 5784 5783 5781 5780 5778 5777 5775 5774 5772 5771 5769 5768 5768 5767 5767 5766 5765 5765 5765 5766 5767 5768 5769 5771 5773 5775 5778 5781 5784 5787 5790 5793 5796
5793 5791 5790 5788 5787 5786 5784 5783 5781 5779 5778 5776 5775 5774 5772 5770 5768 5767 5765 5764 5762 5761 5760 5759 5758 5758 5757 5756 5756 5756 5757 5758 5760 5761 5764 5766 5768 5772 5775 5778 5781 5784 5787
5786 5785 5783 5781 5780 5779 5777 5776 5774 5773 5771 5769 5768 5767 5765 5764 5761 5760 5758 5756 5755 5753 5752 5751 5750 5749 5748 5747 5747 5747 5748 5749 5750 5752 5754 5756 5759 5762 5765 5768 5771 5775 5778
5779 5778 5776 5774 5773 5772 5770 5768 5767 5766 5764 5763 5761 5760 5759 5757 5755 5753 5751 5749 5747 5745 5744 5742 5741 5740 5739 5738 5738 5738 5738 5739 5741 5742 5745 5747 5749 5752 5755 5758 5762 5765 5769
5772 5771 5769 5767 5766 5764 5763 5761 5760 5759 5757 5756 5754 5753 5751 5750 5748 5747 5744 5742 5739 5737 5735 5734 5732 5731 5730 5729 5729 5729 5729 5730 5731 5733 5735 5738 5740 5743 5746 5749 5752 5756 5759
5765 5764 5762 5760 5759 5757 5756 5754 5753 5751 5750 5749 5747 5746 5744 5742 5740 5739 5737 5735 5732 5729 5727 5725 5723 5722 5721 5720 5720 5720 5720 5721 5723 5724 5727 5729 5731 5734 5736 5740 5743 5746 5749
5759 5757 5755 5754 5753 5751 5749 5748 5746 5744 5743 5741 5740 5738 5737 5735 5733 5731 5729 5727 5724 5721 5718 5715 5714 5712 5712 5711 5711 5711 5711 5712 5714 5716 5718 5720 5722 5724 5727 5730 5733 5736 5739
5753 5751 5750 5748 5747 5745 5743 5742 5740 5738 5736 5734 5732 5731 5729 5727 5725 5723 5721 5719 5716 5713 5710 5706 5704 5703 5702 5702 5702 5702 5703 5704 5705 5707 5709 5710 5713 5715 5718 5720 5723 5726 5729
5747 5745 5744 5743 5741 5739 5738 5736 5734 5732 5730 5728 5725 5723 5721 5719 5716 5714 5712 5710 5708 5705 5702 5699 5696 5694 5693 5692 5692 5693 5694 5695 5696 5698 5699 5701 5703 5705 5708 5710 5713 5716 5719
5742 5741 5739 5738 5736 5734 5732 5730 5728 5725 5723 5721 5718 5715 5713 5711 5708 5705 5703 5701 5699 5696 5694 5691 5689 5687 5686 5685 5684 5684 5685 5686 5687 5689 5690 5692 5693 5695 5697 5700 5703 5705 5708
5736 5736 5734 5733 5731 5729 5726 5724 5722 5719 5717 5714 5711 5709 5706 5703 5700 5697 5695 5692 5689 5687 5685 5684 5681 5680 5678 5678 5677 5677 5677 5677 5678 5679 5680 5682 5683 5685 5687 5689 5692 5695 5698
5731 5730 5729 5727 5725 5723 5721 5719 5716 5714 5711 5708 5705 5702 5699 5696 5693 5690 5687 5684 5681 5679 5677 5676 5673 5672 5671 5670 5670 5669 5669 5669 5669 5670 5671 5672 5673 5675 5677 5679 5681 5684 5687
5726 5725 5724 5722 5720 5718 5716 5714 5711 5708 5706 5703 5699 5696 5693 5689 5686 5683 5680 5677 5674 5672 5670 5668 5666 5665 5664 5663 5662 5661 5661 5661 5661 5661 5661 5662 5663 5665 5667 5669 5671 5673 5676
5722 5720 5719 5717 5716 5714 5712 5709 5706 5703 5700 5697 5694 5690 5687 5683 5680 5677 5673 5670 5667 5664 5662 5660 5659 5657 5656 5655 5654 5653 5652 5652 5651 5651 5651 5652 5653 5654 5656 5659 5661 5663 5666
5717 5716 5714 5713 5712 5710 5707 5705 5702 5699 5696 5692 5689 5685 5681 5678 5674 5671 5668 5664 5661 5658 5655 5653 5651 5649 5648 5646 5645 5644 5644 5643 5642 5642 5642 5642 5643 5644 5646 5648 5651 5653 5655
5713 5711 5710 5709 5707 5705 5703 5700 5698 5695 5691 5687 5684 5680 5676 5672 5668 5665 5662 5659 5655 5652 5648 5646 5643 5641 5640 5638 5637 5636 5635 5634 5633 5632 5632 5632 5633 5634 5635 5637 5640 5642 5645
5710 5708 5707 5705 5704 5702 5699 5697 5693 5690 5687 5683 5679 5675 5670 5667 5663 5659 5656 5652 5649 5645 5642 5639 5636 5634 5632 5630 5629 5628 5626 5625 5624 5623 5622 5623 5623 5624 5625 5627 5629 5631 5634
5707 5705 5704 5703 5701 5698 5696 5693 5690 5686 5682 5678 5674 5670 5666 5662 5658 5654 5650 5645 5642 5637 5634 5632 5629 5626 5624 5623 5621 5620 5618 5617 5616 5614 5614 5614 5613 5614 5615 5616 5618 5621 5623
5704 5703 5701 5700 5698 5695 5692 5689 5686 5683 5679 5674 5670 5665 5661 5657 5653 5649 5644 5640 5636 5632 5628 5625 5622 5619 5617 5615 5613 5612 5610 5609 5608 5606 5605 5605 5605 5605 5605 5607 5608 5610 5612
5702 5701 5699 5697 5695 5692 5689 5686 5683 5680 5675 5670 5666 5662 5657 5652 5648 5643 5639 5635 5630 5626 5622 5619 5615 5612 5610 5607 5606 5604 5603 5602 5601 5599 5597 5597 5596 5596 5597 5597 5598 5600 5602
5700 5699 5697 5695 5692 5690 5687 5684 5681 5676 5672 5667 5663 5658 5653 5648 5643 5638 5633 5629 5625 5621 5617 5613 5610 5606 5603 5601 5599 5597 5596 5594 5593 5592 5590 5589 5588 5588 5588 5589 5589 5590 5591